Regional Weather Roundup
Issued by NWS Wakefield, VA

Home | Current Version | Previous Version | Text Only | Print | Product List | Glossary On
Versions: 1 2 3 4 5 6 7 8 9 10 11 12 13 14 15 16 17 18 19 20 21 22 23 24 25 26 27 28 29 30 31 32 33 34 35 36 37 38 39 40 41 42 43 44 45 46 47 48 49 50
000
ASUS41 KAKQ 282010
RWRAKQ

REGIONAL WEATHER ROUNDUP
NATIONAL WEATHER SERVICE WAKEFIELD VA
300 PM EST SAT FEB 28 2015

Note: "fair" indicates few or no clouds below 12,000 feet with no
significant weather and/or obstructions to visibility. * = Denotes
station may not report precipitation (e.g., rain,snow,etc.),
thunder or fog.

VAZ042-051-052>054-056-282100-
NORTHERN VIRGINIA

CITY           SKY/WX    TMP DP  RH WIND       PRES   REMARKS
WASH NATIONAL  PTSUNNY   31   2  29 SE3       30.78F
DULLES         PTSUNNY   28  -4  25 CALM      30.76F
FORT BELVOIR   MOSUNNY   30   3  31 SE8       30.77F
QUANTICO       MOSUNNY   28   2  32 E3        30.79F
FREDERICKSBRG* MOSUNNY   33   6  32 SE3       30.76F
STAFFORD*      PTSUNNY   30   0  27 CALM      30.80F
WARRENTON      MOSUNNY   31   9  39 E3        30.74F
CULPEPER*      PTSUNNY   30   1  29 S3        30.76F
MANASSAS*      SUNNY     28   1  31 CALM      30.77F
LEESBURG*      MOSUNNY   30   3  31 CALM      30.76F
WINCHESTER     MOSUNNY   32  -4  21 CALM      30.71F
FRONT ROYAL*   FAIR      28   7  40 E7        30.70F
LURAY*         FAIR      32  12  43 CALM      30.68F
$$

VAZ048-049-060>072-079>083-282100-
CENTRAL AND SOUTH CENTRAL VIRGINIA

CITY           SKY/WX    TMP DP  RH WIND       PRES   REMARKS
RICHMOND       MOSUNNY   35   7  31 N3        30.75F
CHESTERFIELD*  MOCLDY    34   5  29 CALM      30.76F
PETERSBURG*    PTSUNNY   34   8  32 CALM      30.75F
HANOVER        SUNNY     33   7  33 VRB3      30.77F
TAPPAHANNOCK*  MOSUNNY   32   0  25 NE3       30.77F
QUINTON*       FAIR      32   5  32 CALM      30.76F
CHARLOTTSVILLE PTSUNNY   30   5  34 CALM      30.71F
GORDONSVILLE*  FAIR      29   5  36 CALM      30.73F
ORANGE*        PTSUNNY   30   9  40 CALM      30.76F
LOUISA*        PTSUNNY   34   9  35 W3        30.72F
BUMPASS*       FAIR      30   7  38 NW3       30.74F
FARMVILLE*     MOSUNNY   47   8  20 CALM      30.72F
CREWE*         FAIR      34   7  32 E3        30.73F
FORT PICKETT*  CLOUDY    33   9  36 NE5       30.72F
CHASE CITY*    CLOUDY    37  13  37 CALM      30.71F
CLARKSVILLE*   CLOUDY    34  10  37 N3        30.71F
SOUTH HILL*    MOSUNNY   34   9  35 CALM      30.78S
LAWRENCEVILLE* FAIR      35   9  33 CALM      30.73S
EMPORIA*       SUNNY     36  10  35 NE5       30.76F
$$

VAZ088>098-282100-
SOUTHEAST VIRGINIA

CITY           SKY/WX    TMP DP  RH WIND       PRES   REMARKS
NORFOLK        MOSUNNY   29  15  56 N12       30.78S WCI  19
VIRGINIA BEACH PTSUNNY   32  18  56 NE13      30.77S WCI  22
NORFOLK NAVAL  PTSUNNY   32  16  51 NE13      30.79S WCI  22
WEST POINT*    SUNNY     37   6  27 E6        30.78F
SALUDA*        MOCLDY    28  13  54 E8        30.78F
NEWPORT NEWS   CLOUDY    31  16  54 E9        30.77F
LANGLEY AFB    CLOUDY    29  10  45 E10       30.78S WCI  19
FORT EUSTIS    CLOUDY    33  18  54 E9        30.75F
WILLIAMSBURG*  MOSUNNY   39  18  41 NE5       30.77F
HR EXEC AP*    FAIR      32  14  47 NE12      30.79F WCI  23
FRANKLIN*      SUNNY     34  11  39 E6        30.76F
WAKEFIELD      MOSUNNY   36   9  32 VRB6      30.75F
$$

VAZ020-022-025-037-045-282100-
WEST CENTRAL AND SOUTHWEST VIRGINIA

CITY           SKY/WX    TMP DP  RH WIND       PRES   REMARKS
STAUNTON*      MOSUNNY   29  10  44 S7        30.68F
WAYNESBORO*    FAIR      27   8  44 CALM      30.65S
HOT SPRINGS VA SUNNY     25  10  51 SE5       30.46S
LYNCHBURG      MOSUNNY   29   8  41 CALM      30.70F
DANVILLE       MOSUNNY   35  11  36 E5        30.70F
SOUTH BOSTON*  CLOUDY    35   9  33 NE3       30.71F
MARTINSVILLE   SUNNY     36  16  44 NE3       30.69F
ROANOKE        MOSUNNY   31  11  43 VRB5      30.68F
BLACKSBURG     SUNNY     32  14  46 E3        30.61S
DUBLIN*        SUNNY     33  18  54 NE3       30.59S
MARION*        MOSUNNY   35  19  53 NE9       30.55F
HILLSVILLE*    SUNNY     32  18  56 S5        30.54S
RICHLANDS*     FAIR      39  17  41 CALM      30.48F
WISE*          SUNNY     45  18  33 SE5       30.49S
ABINGDON*      MOSUNNY   42  21  43 E6        30.51F
$$

MDZ021>025-VAZ099-100-282100-
SOUTHERN MARYLAND AND THE DELMARVA PENINSULA

CITY           SKY/WX    TMP DP  RH WIND       PRES   REMARKS
PATUXENT RIVER CLOUDY    26   7  44 NE6       30.79F
BAY BRIDGE APT   N/A     28   0  29 NE3       30.80S
LEONARDTOWN    SUNNY     28   9  43 N3        30.79F
DOVER          SUNNY     29   6  37 W7        30.79S
GEORGETOWN     MOSUNNY   27   7  42 E6        30.78F
EASTON         MOSUNNY   28   7  40 CALM      30.82F
CAMBRIDGE      FAIR      32  10  40 CALM      30.79F
SALISBURY      MOSUNNY   32   7  35 VRB5      30.78F
OCEAN CITY     MOSUNNY   27  10  49 E9        30.79F
WALLOPS ISLAND MOSUNNY   27  14  58 E8        30.79F
ACCOMACK*      PTSUNNY   30  12  47 N3        30.79S
$$

NCZ012>017-030>032-282100-
NORTH CENTRAL AND EASTERN NORTH CAROLINA

CITY           SKY/WX    TMP DP  RH WIND       PRES   REMARKS
ROANOKE RAPIDS FAIR      36  14  41 NE8       30.73F
RALEIGH        PTSUNNY   35  13  40 NE8       30.70F
ELIZABETH CITY SUNNY     34  17  50 NE15      30.76S WCI  24
AHOSKIE*       SUNNY     36  11  36 N5        30.75F
EDENTON*       SUNNY     39  20  46 E9        30.74F
CURRITUCK*     SUNNY     32  15  49 NE12G17   30.78R WCI  23
KILL DEVIL HLS MOSUNNY   34  22  60 N7G21     30.73R
MANTEO         SUNNY     34  21  60 N21       30.74R WCI  22
CAPE HATTERAS  CLOUDY    37  28  70 NE13G26   30.68F
TARBORO*       CLOUDY    39  16  39 NE7       30.73F
GOLDSBORO      CLOUDY    39  21  48 NE8       30.68F
WASHINGTON     MOSUNNY   39  20  47 NE13      30.73S
GREENVILLE     MOSUNNY   39  19  45 NE9       30.71F
NEW BERN       MOSUNNY   43  19  38 NE14      30.71S
WILMINGTON     SUNNY     50  25  37 N14       30.63S
$$

VAZ048-282100-
ELSEWHERE

CITY           SKY/WX    TMP DP  RH WIND       PRES   REMARKS
HARRISBURG PA  MOSUNNY   26  -3  28 NW6       30.75F
BALTIMORE      PTSUNNY   29  -2  26 CALM      30.76F
ANNAPOLIS      SUNNY     25   6  44 SE8       30.79F
ANDREWS AFB    MOSUNNY   29   1  30 VRB1      30.76F
PHILADELPHIA   MOSUNNY   30  -4  23 NW6       30.78F
HENDERSON NC   MOSUNNY   34  10  36 CALM      30.71S
GREENSBORO     CLOUDY    34  16  47 E7        30.65F
ROCKY MOUNT    CLOUDY    39  16  39 NE9       30.72F
$$

VAZ100-282100-
MARINE

STATION/POSITION TIME  TEMP    WIND        PRES    WAVE   SWELL
                       AIR SEA DIR/SP/G            HT/PER HT/PER
                 (UTC) (F)     (DEG/KT/KT) (MB)    (FT/S) (FT/S)
BRANDYWINE LGT   2000   24 30  350/  6/  8 1042.8S
CAPE MAY NJ      2000   26 32  300/  6/ 10 1042.4R
LEWES DE         2000   24 30  360/  5/  6 1042.9R
15NM E FENWICK I 2000   24 34              1042.6F   3/10
OCEAN-CITY-INLET 2000           70/  7/ 10 1042.5R
WACHAPREAGUE VA  2000   27 32   80/  7/  9 1042.5S
THOMAS POINT MD  2000   24 32   CALM  /  5 1043.6F
COVE POINT MD    2000   22      50/  4/  5 1042.7F
SOLOMONS ISLAND  2000      33                N/A
BISHOPS HEAD MD  2000   26 32  240/  4/  6 1042.3F
CAMBRIDGE MD     2000   26 32  340/  6/  7 1042.8R
LEWISETTA VA     2000   25 33     CALM     1042.1F
RAPPAHANNOCK LGT 2000          350/ 10/ 11 1043.0S
STINGRAY PT      2000   26      50/ 10/ 12   N/A
YORK RVR RNG VA  2000   27      60/ 12/ 14 1041.6F
YORKTOWN VA      2000   29 34   70/ 10/ 12 1041.9F
DOMINION TERM VA 2000   30      60/  8/ 13 1042.2F
KIPTOPEKE VA     2000      38   40/  5/  8   N/A
CHES BAY BRIDGE  2000          360/ 13/ 15 1042.1F
CAPE HENRY VA    2000   28      30/ 10/ 13 1040.9F
CHESAPEAKE LGHT  1900   28      20/ 16/ 17 1042.3F
WILLOUBY STN VA  2000   27      40/ 12/ 13 1042.6F
S CRANEY ISL VA  2000           40/ 10/ 12 1042.3F
CAPE HENRY BUOY  2000      35                N/A     4/ 5   2/11
1ST LANDING BUOY 2000   28     350/ 12/ 14 1042.3R
OFFSHORE WE BUOY 2000      37                N/A     5/11   3/11
64NM E OF VA BCH 2000   39 61  360/ 16/ 21 1039.8F   5/11   3/11
DUCK PIER NC     2000   31 35   10/ 15/ 19 1040.3R
44100 DUCK FRF   2000      37                N/A     5/ 6   2/11
44056 DUCK FRF   2000      34                N/A     5/ 7   2/11
OREGON INLET NC  2000   34 38  360/ 16/ 22 1040.3F
HATTERAS NC      2000           20/ 24/ 29 1038.8S
CAPE LOOKOUT NC  2000   40      30/ 21/ 26 1037.8F
$$



USA.gov is the U.S. government's official web portal to all federal, state and local government web resources and services.